Regional Weather Roundup
Issued by NWS

Home | Current Version | Previous Version | Text Only | Print | Product List | Glossary On
Versions: 1 2 3 4 5 6 7 8 9 10 11 12 13 14 15 16 17 18 19 20 21 22 23 24 25 26 27 28 29 30 31 32 33 34 35 36 37 38 39 40 41 42 43 44 45 46 47 48 49 50
000
ASUS43 KFSD 211602
RWRSD

WEATHER ROUNDUP FOR SOUTH DAKOTA
NATIONAL WEATHER SERVICE SIOUX FALLS SD
1100 AM CDT SAT OCT 21 2017

NOTE: "FAIR" INDICATES FEW OR NO CLOUDS BELOW 12,000 FEET WITH NO
SIGNIFICANT WEATHER AND/OR OBSTRUCTIONS TO VISIBILITY.


SDZ001>005-009-010-012>017-211700-
NORTHWEST AND NORTH CENTRAL SOUTH DAKOTA

CITY           SKY/WX    TMP DP  RH WIND       PRES   REMARKS
BUFFALO          N/A     49  29  46 W40G53    29.68R
MOBRIDGE       CLOUDY    50  41  71 NW15      29.61R
$$

SDZ012>016-024>037-041>051-057-063-072>074-211700-
SOUTHWEST AND SOUTH CENTRAL SOUTH DAKOTA

CITY           SKY/WX    TMP DP  RH WIND       PRES   REMARKS
RAPID CTY ARPT CLOUDY    49  23  36 NW20      29.81R
PIERRE         LGT RAIN  47  43  86 W20G26    29.76R
CUSTER         CLOUDY    40  20  44 NW9G20    29.82R
ELLSWORTH AFB  CLOUDY    49  22  34 NW23G38   29.78R
PHILIP         LGT RAIN  50  34  54 NW12      29.77R
PINE RIDGE     CLOUDY    46  37  71 W5        29.84R
SPEARFISH      FAIR      46  23  39 W23G35    29.82R
WINNER         LGT RAIN  49  41  74 NW25G32   29.76R
$$

SDZ004>011-016>023-039-040-211700-
NORTHEAST SOUTH DAKOTA

CITY           SKY/WX    TMP DP  RH WIND       PRES   REMARKS
ABERDEEN       PTSUNNY   57  42  57 NW20G31   29.56R
WATERTOWN      CLOUDY    57  52  83 W17G24    29.52R
BROOKINGS      CLOUDY    66  61  84 S16       29.52S
SISSETON         N/A     62  45  53 N15G25    29.50R
$$

SDZ017-020-022-023-036>040-048>070-211700-
SOUTHEAST SOUTH DAKOTA

CITY           SKY/WX    TMP DP  RH WIND       PRES   REMARKS
SIOUX FALLS    PTSUNNY   70  64  81 S18G30    29.54R
HURON          CLOUDY    54  43  66 NW17      29.59R
CHAMBERLAIN    CLOUDY    55  42  61 NW24G33   29.73R
MITCHELL       CLOUDY    56  42  59 NW20      29.62R
YANKTON        CLOUDY    61  47  59 NW21G30   29.59R
$$

ABBREVIATIONS USED IN REMARKS
   TC - TEMPERATURE IN CELSIUS
  WCI - WIND CHILL INDEX
   HX - HEAT INDEX
  VSB - VISIBILITY




USA.gov is the U.S. government's official web portal to all federal, state and local government web resources and services.